Home   Weather   Pratapgarh   Past weeks

Flag for India Past Weather in Pratapgarh, Uttar Pradesh, India — Yesterday and Last 2 Weeks

Now
50 °F

Fog.


Feels Like: 49 °F
Forecast: 51 / 73 °F
Wind: 3 mph from Northwest

Location: Lucknow / Amausi

Current Time: Jan 18, 2017 at 12:52:35 am

Latest Report: Jan 18, 2017 at 12:00 am


Visibility: 0 mi

Pressure: 30.07 "Hg

Humidity: 94%

Dew Point: 48 °F

Location of PratapgarhLocation

Past Weather in Pratapgarh — Graph

°F

Pratapgarh Temperature Yesterday

Maximum temperature yesterday: 70 °F (at 1:30 pm)
Minimum temperature yesterday: 48 °F (at 6:30 am)
Average temperature yesterday: 58 °F

High & Low Weather Summary for the Past Weeks

 TemperatureHumidityPressure
High77 °F (Jan 16, 2:00 pm)100% (Jan 2, 11:00 pm)30.12 "Hg (Jan 2, 11:00 pm)
Low36 °F (Jan 12, 5:00 am)29% (Jan 10, 1:00 pm)29.80 "Hg (Jan 7, 2:00 pm)
Average57 °F79%29.98 "Hg
* Reported Jan 2 11:00 pm — Jan 17 11:00 pm, Pratapgarh, Weather by CustomWeather, © 2017

Note: Actual official high and low records may vary slightly from our data, if they occured in-between our weather recording intervals... More about our weather records

Advertising

Pratapgarh Weather History for the Previous 24 Hours

Scroll right to see more
 ConditionsComfort  
Time TempWeatherWind HumidityBarometerVisibility
11:00 pm
Tue, Jan 17
50 °FFog.No wind94%30.07 "Hg1 mi
10:00 pm52 °FFog.3 mph94%30.07 "Hg1 mi
9:00 pm54 °FFog.5 mph94%30.07 "Hg1 mi
8:30 pm55 °FFog.3 mph88%30.04 "Hg1 mi
8:00 pm55 °FFog.5 mph88%30.04 "Hg1 mi
7:30 pm55 °FFog.3 mph88%30.04 "Hg1 mi
7:00 pm57 °FFog.5 mph82%30.01 "Hg1 mi
5:30 pm63 °FClear.7 mph73%30.01 "Hg1 mi
5:00 pm64 °FHaze.7 mph68%29.98 "Hg1 mi
4:00 pm66 °FHaze.8 mph68%29.98 "Hg1 mi
3:30 pm68 °FHaze.9 mph60%29.98 "Hg1 mi
3:00 pm70 °FHaze.7 mph57%29.98 "Hg1 mi
2:30 pm70 °FHaze.8 mph53%29.98 "Hg1 mi
2:00 pm70 °FHaze.8 mph57%30.01 "Hg1 mi
1:30 pm70 °FHaze.7 mph53%30.01 "Hg1 mi
1:00 pm68 °FHaze.7 mph60%30.01 "Hg1 mi
12:30 pm68 °FHaze.7 mph56%30.04 "Hg1 mi
12:00 pm68 °FHaze.6 mph56%30.04 "Hg1 mi
11:30 am68 °FHaze.6 mph56%30.07 "Hg1 mi
11:00 am66 °FFog.3 mph60%30.07 "Hg1 mi
10:30 am64 °FFog.3 mph64%30.07 "Hg1 mi
10:00 am59 °FFog.3 mph72%30.07 "Hg1 mi
9:30 am55 °FFog.6 mph82%30.07 "Hg1 mi
9:00 am52 °FFog.5 mph94%30.04 "Hg1 mi
8:30 am50 °FFog.No wind94%30.04 "Hg1 mi
8:00 am48 °FFog.3 mph100%30.01 "Hg1 mi
7:30 am48 °FFog.No wind94%30.01 "Hg1 mi
7:00 am48 °FFog.3 mph87%29.98 "Hg1 mi
6:30 am48 °FFog.3 mph87%29.98 "Hg1 mi
6:00 am50 °FFog.3 mph88%29.98 "Hg1 mi
5:30 am50 °FFog.3 mph88%29.95 "Hg1 mi
5:00 am50 °FFog.3 mph88%29.95 "Hg1 mi
4:00 am52 °FFog.3 mph82%29.95 "Hg1 mi
3:00 am52 °FFog.5 mph82%29.95 "Hg1 mi
2:00 am52 °FFog.5 mph82%29.95 "Hg1 mi
1:00 am52 °FFog.3 mph82%29.95 "Hg1 mi
12:00 am52 °FFog.2 mph88%29.95 "Hg1 mi
Weather by CustomWeather, © 2017

See weather overviewHow to use our weather pages